Home > Weather > Calgary > Past weeks

Flag for Canada Weather for the Past 2 Weeks in Calgary, Alberta, Canada

Now
45 °F

Passing clouds.


Feels Like: 45 °F
Forecast: 32 / 51 °F
Wind: No wind

Location: Calgary International

Current Time: Feb 9, 2016 at 1:21:10 AM

Latest Report: Feb 9, 2016 at 12:00 AM


Visibility: 15 mi

Pressure: 30.30 "Hg (26.62 "Hg at 1063m altitude)

Humidity: 42%

Dew point: 23 °F

Location of CalgaryLocation

Historic Weather in Calgary — Graph

°F

Calgary Temperature Yesterday

Maximum temperature yesterday: 57 °F (at 1:00 PM)
Minimum temperature yesterday: 25 °F (at 2:00 AM)
Average temperature yesterday: 46 °F

High & Low Weather Summary for the Past Weeks

 TemperatureHumidityPressure
High57 °F (Feb 8, 1:00 PM)93% (Jan 25, 8:00 AM)30.53 "Hg (Jan 25, 8:00 AM)
Low9 °F (Jan 25, 2:00 AM)19% (Feb 6, 11:46 AM)29.43 "Hg (Jan 28, 2:00 PM)
Average34 °F54%30.00 "Hg
* Reported Jan 24 11:00 PM — Feb 8 11:00 PM, Calgary, Weather by CustomWeather, © 2016

Note: Actual official high and low records may vary slightly from our data, if they occured in-between our weather recording intervals... More about our weather records

Advertising

Calgary Weather History for the Previous 24 Hours

 ConditionsComfort  
Time TempWeatherWind HumidityBarometerVisibility
11:00 PM
Mon, Feb 8
45 °FPassing clouds.5 mph42%30.31 "Hg15 mi
10:00 PM48 °FPassing clouds.6 mph37%30.31 "Hg15 mi
9:00 PM46 °FPassing clouds.2 mph43%30.31 "Hg15 mi
8:00 PM50 °FPassing clouds.7 mph35%30.31 "Hg15 mi
7:53 PM43 °FPassing clouds.14 mph53%30.32 "Hg15 mi
7:00 PM46 °FPassing clouds.2 mph40%30.31 "Hg15 mi
6:00 PM52 °FPartly cloudy.13 mph32%30.29 "Hg20 mi
5:00 PM52 °FBroken clouds.8 mph35%30.30 "Hg30 mi
4:00 PM55 °FBroken clouds.13 mph28%30.32 "Hg30 mi
3:00 PM57 °FPartly sunny.14 mph27%30.33 "Hg30 mi
2:00 PM57 °FBroken clouds.16 mph25%30.34 "Hg30 mi
1:00 PM57 °FPartly sunny.17 mph27%30.35 "Hg30 mi
12:00 PM54 °FPartly sunny.17 mph33%30.37 "Hg30 mi
11:00 AM52 °FPartly sunny.14 mph35%30.40 "Hg30 mi
10:00 AM48 °FPartly sunny.13 mph37%30.41 "Hg30 mi
9:00 AM48 °FPartly sunny.18 mph37%30.40 "Hg30 mi
8:00 AM46 °FPassing clouds.17 mph40%30.40 "Hg30 mi
7:00 AM46 °FPartly cloudy.17 mph40%30.39 "Hg15 mi
6:00 AM46 °FPassing clouds.21 mph40%30.38 "Hg15 mi
5:00 AM45 °FPassing clouds.12 mph42%30.38 "Hg15 mi
4:00 AM37 °FClear.7 mph48%30.38 "Hg15 mi
3:00 AM27 °FPassing clouds.5 mph54%30.42 "Hg15 mi
2:00 AM25 °FPassing clouds.3 mph59%30.42 "Hg15 mi
1:00 AM27 °FPassing clouds.3 mph54%30.43 "Hg15 mi
Weather by CustomWeather, © 2016

See weather overviewHow to use our weather pages